Location: Unspecified
(0.0000°N, 0.0000°E)
Time: 23:09:33
(UTC+00:00)

Courier 1B Rocket - Visible Passes

Search period start: 28 May 2022 00:00
Search period end: 07 June 2022 00:00
Orbit: 920 x 1202 km, 28.2° (Epoch: 28 May)

Date Brightness Start Highest point End Pass type
(mag) Time Alt. Az. Time Alt. Az. Time Alt. Az.
28 May 6.9 05:18:18 10° NNW 05:23:33 28° NNE 05:28:59 10° E visible
28 May 5.3 18:39:48 10° WSW 18:47:34 86° SSE 18:54:54 10° ENE visible
28 May 6.8 20:35:07 10° W 20:41:22 29° NNW 20:43:55 23° N visible
29 May 7.3 04:18:14 10° NNW 04:22:21 18° NNE 04:26:32 10° ENE visible
29 May 6.3 19:32:52 10° W 19:40:03 43° NNW 19:46:48 10° NE visible
29 May 7.6 21:31:07 10° NW 21:34:14 13° NNW 21:34:23 13° NNW visible
30 May 7.5 03:18:51 10° N 03:21:01 12° NNE 03:23:10 10° NE visible
30 May 6.1 05:09:02 10° NW 05:14:54 43° NNE 05:20:59 10° E visible
30 May 5.9 18:31:01 10° WSW 18:38:44 64° NNW 18:46:03 10° NE visible
30 May 7.4 20:27:32 10° WNW 20:32:43 20° NNW 20:37:43 10° NNE visible
31 May 6.7 04:08:34 10° NNW 04:13:49 28° NNE 04:19:07 10° E visible
31 May 7.0 19:24:48 10° W 19:31:17 29° NNW 19:37:30 10° NNE visible
01 Jun 7.1 03:10:12 15° N 03:12:37 18° NNE 03:16:49 10° ENE visible
01 Jun 5.2 05:00:02 10° NW 05:06:14 70° NNE 05:12:36 10° ESE visible
01 Jun 6.6 18:22:34 10° W 18:29:53 43° NNW 18:36:56 10° NE visible
01 Jun 7.7 20:20:41 10° NW 20:24:14 14° NNW 20:27:42 10° N visible
02 Jun 5.8 04:00:34 16° NW 04:05:12 44° NNE 04:11:08 10° E visible
02 Jun 7.6 19:17:12 10° WNW 19:22:39 20° NNW 19:27:55 10° NNE visible
03 Jun 6.5 03:04:32 29° NE 03:04:32 29° NE 03:09:24 10° E visible
03 Jun 4.8 04:51:19 10° WNW 04:57:32 73° SSW 05:03:52 10° SE visible
03 Jun 7.3 18:14:31 10° W 18:21:08 30° NNW 18:27:34 10° NNE visible
04 Jun 5.0 03:54:59 51° NW 03:56:32 72° NNE 04:02:46 10° ESE visible
04 Jun 7.8 19:10:19 10° NW 19:14:09 14° NNW 19:17:56 10° N visible
05 Jun 6.7 02:58:54 24° E 02:58:54 24° E 03:01:26 10° ESE visible
05 Jun 5.2 04:45:22 23° W 04:48:53 45° SSW 04:54:51 10° SE visible
06 Jun 5.2 03:49:11 54° SSE 03:49:11 54° SSE 03:54:04 10° SE visible
